Tracking 17780 objects as of 27-July-2016
HD Live streaming from Space Station
objects crossing your sky now

THORAD AGENA D DEB

Track THORAD AGENA D DEB now!
10-day predictions


NORAD ID: 4177
Int'l Code: 1969-082AV
Perigee: 942.2 km
Apogee: 942.2 km
Inclination: 70.1 °
Period: 103.7 minutes
Semi major axis: 7313 km
RCS: 0.0743 m2 (small)
Launch date: September 30, 1969
Source: United States (US)
Launch site: AIR FORCE WESTERN TEST RANGE (AFWTR)

Note: This is SATELLITE DEBRIS
Your satellite tracking list
Your tracking list is empty





NASA's NSSDC Master Catalog

Two Line Element Set (TLE):
1 04177U 69082AV  16208.16682562  .00000348  00000-0  31639-3 0  9997
2 04177  70.0709 274.5019 0118557  15.2458 345.2166 13.88154915354738
Source of the keplerian elements: AFSPC

N2YO: 851